This is the latest recevied weather packets stored in our database for station/object LA9TLA-1. If no packets are shown the sender has not sent any weather packets the latest 10 day(s).
| Time | Temp. | Humidity | Pressure | Rain* | Wind** | Luminosity | Snow |
|---|---|---|---|---|---|---|---|
| 1778331462 | 6.67° C | 99% | 1032.4 hPa | 0.25 mm | - | - | - |
| 1778329661 | 7.22° C | 99% | 1032.1 hPa | 0 mm | - | - | - |
| 1778327866 | 7.78° C | 99% | 1031.9 hPa | 0 mm | - | - | - |
| 1778326061 | 7.78° C | 99% | 1032 hPa | 0 mm | - | - | - |
| 1778324261 | 8.89° C | 99% | 1031.9 hPa | 0 mm | - | - | - |
| 1778322462 | 9.44° C | 99% | 1031.8 hPa | 0 mm | - | - | - |
| 1778320663 | 9.44° C | 99% | 1031.6 hPa | 0 mm | - | - | - |
| 1778318862 | 8.89° C | 99% | 1032 hPa | 0 mm | - | - | - |
| 1778311664 | 10.56° C | 98% | 1031.6 hPa | 0 mm | - | - | - |
| 1778302664 | 10° C | 61% | 1031 hPa | 0 mm | - | - | - |
| 1778299061 | 9.44° C | 38% | 1031.1 hPa | 0 mm | - | - | - |
| 1778297266 | 9.44° C | 39% | 1031 hPa | 0 mm | - | - | - |
| 1778291864 | 10° C | 34% | 1031.5 hPa | 0 mm | - | - | - |
| 1778290062 | 10° C | 24% | 1031.6 hPa | 0 mm | - | - | - |
| 1778288265 | 10° C | 12% | 1031.6 hPa | 0 mm | - | - | - |
| 1778286464 | 10° C | 12% | 1031.5 hPa | 0 mm | - | - | - |
| 1778284663 | 10° C | 12% | 1031.5 hPa | 0 mm | - | - | - |
| 1778282864 | 10° C | 12% | 1031.5 hPa | 0 mm | - | - | - |
| 1778281062 | 10° C | 12% | 1031.6 hPa | 0 mm | - | - | - |
| 1778279261 | 10.56° C | 12% | 1031.6 hPa | 0 mm | - | - | - |
| 1778277466 | 10.56° C | 12% | 1032 hPa | 0 mm | - | - | - |
| 1778275665 | 11.11° C | 12% | 1031.8 hPa | 0 mm | - | - | - |
| 1778272064 | 11.11° C | 12% | 1031.5 hPa | 0 mm | - | - | - |
| 1778270264 | 11.67° C | 12% | 1031.3 hPa | 0 mm | - | - | - |
| 1778268461 | 11.67° C | 12% | 1031.1 hPa | 0 mm | - | - | - |
* Rain latest hour (hover to see other rain measurements)
** Current wind speed in m/s (hover to see current wind gust speed)